Weather in Ust-Abakan

Russia / Republic of Khakassia     53°49′58″N   91°23′39″E
temp.,
°C
wind,
m/s
gust,
m/s
humid.,
%
clouds,
%
prec.,
mm/h
press.,
hPa
HPBL,
m
6 august, fri
fri601:00+17ssw1182100 1.7 100511
04:00+15wsw1186100 0.1 100514
07:00+16wsw228433 0.1 1006108
10:00+21nw455895 0.0 1006957
13:00+23nw4550100 0.0 10061255
16:00+23n3351100 0.0 1006945
19:00+21ne1166100 0.1 100620
22:00+18ene1173100 0.1 100711
7 august, sat
sat701:00+16se1183100 0.2 100912
04:00+15s1191100 0.4 100912
07:00+16wsw1289100 0.6 101094
10:00+16sw1289100 0.1 1012132
13:00+17sw2283100 0.2 1012256
16:00+21wsw2164100 0.0 1011706
19:00+21wnw0167100 0.0 1011103
22:00+17s1181100 0.0 101111
8 august, sun
sun801:00+16sse0185100 0.0 101111
04:00+15e118877 0.0 101110
07:00+16ese1184100 0.0 101168
10:00+20e226917 0.0 1011720
13:00+24ene335632 0.0 10101463
16:00+24ene5456100 0.1 10091443
19:00+22ne356623 0.1 1009353
22:00+17ne2286100 0.0 101016
9 august, mon
mon901:00+16nnw0087100 0.0 100911
04:00+15ene118897 0.0 100911
07:00+16ese1184100 0.0 100960
10:00+20ene226991 0.0 1009626
13:00+24ene33552 0.0 10071197
16:00+26ene335014 0.0 10061607
19:00+24ne24600 0.0 1006201
22:00+19n227317 0.0 100611
10 august, tue
tue1001:00+18n117924 0.0 100611
04:00+16ne11830 0.0 100611
07:00+18ene11796 0.0 100760
10:00+23ne116384 0.0 1007582
13:00+26se1152100 0.0 10061143
16:00+27nnw114894 0.0 10051405
19:00+25nne3462100 0.0 1005118
22:00+20ssw4584100 1.9 100699